Location: Columbia
(38.9520°N, 92.3340°W)
Time: 12:10:54
(UTC-05:00)

Cosmos 2219 Rocket - Visible Passes

Search period start: 26 April 2015 00:00
Search period end: 06 May 2015 00:00
Orbit: 829 x 846 km, 71.0° (Epoch: 25 April)

Date Brightness Start Highest point End Pass type
(mag) Time Alt. Az. Time Alt. Az. Time Alt. Az.
26 Apr 4.4 04:25:15 10° SE 04:29:01 20° ESE 04:33:01 10° NE visible
27 Apr 4.5 04:09:14 10° SE 04:12:46 18° E 04:16:31 10° ENE visible
28 Apr 4.5 03:53:15 10° SE 03:56:30 17° E 04:00:01 10° ENE visible
28 Apr 2.3 05:34:28 10° SW 05:39:58 61° WNW 05:45:32 10° NNE visible
29 Apr 4.6 03:37:19 10° SE 03:40:14 15° E 03:43:27 10° ENE visible
29 Apr 2.2 05:18:07 10° SSW 05:23:40 67° WNW 05:29:15 10° NNE visible
30 Apr 4.6 03:21:26 10° SE 03:23:59 14° E 03:26:51 10° ENE visible
30 Apr 2.2 05:02:36 14° SSW 05:07:21 72° WNW 05:12:59 10° NNE visible
01 May 4.6 03:05:39 10° ESE 03:07:44 12° E 03:10:09 10° ENE visible
01 May 2.1 04:47:05 20° SSW 04:51:03 78° WNW 04:56:41 10° NNE visible
02 May 4.6 02:50:01 10° ESE 02:51:28 11° E 02:53:19 10° ENE visible
02 May 2.1 04:31:30 26° SSW 04:34:45 84° WNW 04:40:24 10° NNE visible
03 May 4.7 02:34:54 10° E 02:35:12 10° E 02:35:56 10° E visible
03 May 2.1 04:15:52 33° SSW 04:18:27 90° ESE 04:24:06 10° NNE visible
04 May 2.1 04:00:10 42° SSW 04:02:09 84° ESE 04:07:48 10° NNE visible
05 May 2.2 03:44:26 51° S 03:45:51 77° ESE 03:51:29 10° NNE visible
05 May 4.0 05:27:07 10° W 05:30:35 16° NW 05:33:51 10° NNW visible
